Weather in Koriyama

Japan     37°25′55″N   140°25′02″E
temp.,
°C
wind,
m/s
gust,
m/s
humid.,
%
clouds,
%
prec.,
mm/h
press.,
hPa
HPBL,
m
20 april, tue
tue2000:00+6s36720 0.0 1015127
03:00+4s35720 0.0 101587
06:00+5s26690 0.0 1015140
09:00+15wsw411330 0.0 10151213
12:00+19w712360 0.0 10141789
15:00+18w711400 0.0 10131517
18:00+14wsw511640 0.0 1015647
21:00+10w39770 0.0 1018425
21 april, wed
wed2100:00+8w37800 0.0 1019274
03:00+6wsw24860 0.0 1021160
06:00+6sw12834 0.0 1022167
09:00+12wsw33480 0.0 1022813
12:00+17w47280 0.0 10202004
15:00+17wnw35240 0.0 10181292
18:00+10w14440 0.0 1020167
21:00+7ssw13490 0.0 1022112
22 april, thu
thu2200:00+6sw13510 0.0 102278
03:00+4s22550 0.0 102117
06:00+5ssw26520 0.0 1021192
09:00+15sw24303 0.0 1018669
12:00+19nnw413253 0.0 10162324
15:00+17nnw615300 0.0 10162211
18:00+11nne12480 0.0 101883
21:00+5ene37792 0.0 1023361
23 april, fri
fri2300:00+4ne22833 0.0 102573
03:00+3ene11870 0.0 102526
06:00+4ne12780 0.0 1025113
09:00+12nnw12420 0.0 1023772
12:00+17nnw23280 0.0 10201207
15:00+18nne24270 0.0 10181770
18:00+11ne24613 0.0 1020105
21:00+6ene2276100 0.0 102453
24 april, sat
sat2400:00+5e1177100 0.0 102319
03:00+4se118196 0.0 102313
06:00+6s1276100 0.0 102275
09:00+13sw2251100 0.0 1020508
12:00+18sw2233100 0.0 10181025
15:00+19ssw333698 0.0 10161305
18:00+14s4954100 0.0 1016283
21:00+10s2468100 0.0 101678